Powrót do katalogu

STARLINK-34699

AktywnyŁącznośćVLEO
NORAD 64921·PAYLOAD·🇺🇸 United States

Wystrzelony Jul 26, 2025 z Cape Canaveral Space Force Station

Loading…

Następne Przeloty (najbliższe 24 godziny)

TLE

ŚwieżeSource: CelesTrak SupGP

Epoka: Sep 15, 2026, 03:21 UTC

1 64921C 25157T   26258.14006944 -.00042091  00000+0 -12437-2 0  2587
2 64921  53.1588 182.4269 0001368  78.1561 349.9368 15.34409518    15

Śledź STARLINK-34699 w czasie rzeczywistym z AllMySat

Download on the App Store